When you browse on this site, cookies collect data to enhance your experience and personalize the content and advertising you see.
Visit our Privacy Policy to learn more. By continuing to use the site, you agree to this use of cookies and data.
  • Em Portugal
  • Lista de países
  • Para 7 dias
  • Temperatura da água
  • Mapa do tempo
  • Widgets de tempo
  • user-avatar
    Iniciar Sessão

    Previsão horária em Voroshilovo

    Hoje, 29 Fevereiro, Sábado

    Tempo Temperatura Precipitação Vento Pressão Humidade
    00:00 -7°C° 0 mm 3 m/s 744 mmHg 88%
    01:00 -7°C° 0 mm 3 m/s 745 mmHg 88%
    02:00 -8°C° 0 mm 3 m/s 745 mmHg 88%
    03:00 -8°C° 0 mm 3 m/s 745 mmHg 88%
    04:00 -8°C° 0 mm 3 m/s 745 mmHg 88%
    05:00 -8°C° 0 mm 3 m/s 745 mmHg 88%
    06:00 -8°C° 0 mm 3 m/s 745 mmHg 86%
    07:00 -8°C° 0 mm 3 m/s 746 mmHg 85%
    08:00 -8°C° 0 mm 3 m/s 746 mmHg 84%
    09:00 -7°C° 0 mm 3 m/s 746 mmHg 78%
    10:00 -5°C° 0 mm 3 m/s 746 mmHg 72%
    11:00 -4°C° 0 mm 3 m/s 746 mmHg 67%
    12:00 -2°C° 0 mm 3 m/s 746 mmHg 67%
    13:00 -2°C° 0 mm 3 m/s 746 mmHg 66%
    14:00 -2°C° 0 mm 3 m/s 746 mmHg 66%
    15:00 -2°C° 0 mm 3 m/s 746 mmHg 73%
    16:00 -2°C° 0 mm 3 m/s 746 mmHg 79%
    17:00 -2°C° 0 mm 3 m/s 746 mmHg 86%
    18:00 -2°C° 0 mm 3 m/s 746 mmHg 87%
    19:00 -4°C° 0 mm 3 m/s 746 mmHg 89%
    20:00 -4°C° 0 mm 3 m/s 746 mmHg 90%
    21:00 -4°C° 0 mm 3 m/s 746 mmHg 90%
    22:00 -4°C° 0 mm 3 m/s 746 mmHg 90%
    23:00 -4°C° 0 mm 3 m/s 746 mmHg 90%

    Amanhã, 1 Março, Domingo

    Tempo Temperatura Precipitação Vento Pressão Humidade
    00:00 -4°C° 0 mm 3 m/s 746 mmHg 91%
    01:00 -5°C° 0 mm 3 m/s 746 mmHg 92%
    02:00 -5°C° 0 mm 3 m/s 745 mmHg 93%
    03:00 -4°C° 0 mm 3 m/s 745 mmHg 93%
    04:00 -4°C° 0 mm 3 m/s 744 mmHg 93%
    05:00 -4°C° 0 mm 3 m/s 744 mmHg 94%
    06:00 -3°C° 0.1 mm 4 m/s 743 mmHg 93%
    07:00 -3°C° 0.1 mm 4 m/s 743 mmHg 93%
    08:00 -2°C° 0.1 mm 5 m/s 743 mmHg 93%
    09:00 -2°C° 0.1 mm 5 m/s 742 mmHg 93%
    10:00 -1°C° 0.1 mm 5 m/s 742 mmHg 93%
    11:00 -1°C° 0.1 mm 5 m/s 741 mmHg 94%
    12:00 0°C° 0.3 mm 5 m/s 741 mmHg 95%
    13:00 0°C° 0.3 mm 5 m/s 741 mmHg 96%
    14:00 0°C° 0.3 mm 5 m/s 741 mmHg 97%
    15:00 0°C° 0 mm 4 m/s 741 mmHg 95%
    16:00 +1°C° 0 mm 4 m/s 742 mmHg 93%
    17:00 +2°C° 0 mm 3 m/s 742 mmHg 91%
    18:00 +2°C° 0 mm 3 m/s 742 mmHg 91%
    19:00 +1°C° 0 mm 3 m/s 743 mmHg 91%
    20:00 +1°C° 0 mm 3 m/s 743 mmHg 90%
    21:00 +1°C° 0 mm 3 m/s 743 mmHg 91%
    22:00 0°C° 0 mm 3 m/s 743 mmHg 92%
    23:00 0°C° 0 mm 3 m/s 743 mmHg 92%

    Depois de amanhã, 2 Março, Segunda-feira

    Tempo Temperatura Precipitação Vento Pressão Humidade
    00:00 0°C° 0 mm 3 m/s 743 mmHg 93%
    01:00 0°C° 0 mm 3 m/s 743 mmHg 94%
    02:00 0°C° 0 mm 3 m/s 743 mmHg 95%
    03:00 0°C° 0 mm 3 m/s 743 mmHg 95%
    04:00 +2°C° 0 mm 2 m/s 743 mmHg 96%
    05:00 +2°C° 0 mm 2 m/s 743 mmHg 97%
    06:00 +2°C° 0 mm 2 m/s 743 mmHg 97%
    07:00 +2°C° 0 mm 2 m/s 743 mmHg 97%
    08:00 +2°C° 0 mm 2 m/s 744 mmHg 97%
    09:00 +3°C° 0.1 mm 2 m/s 744 mmHg 95%
    10:00 +3°C° 0.1 mm 2 m/s 744 mmHg 93%
    11:00 +3°C° 0.1 mm 3 m/s 744 mmHg 92%
    12:00 +3°C° 0 mm 3 m/s 745 mmHg 89%
    13:00 +3°C° 0 mm 3 m/s 745 mmHg 87%
    14:00 +4°C° 0 mm 3 m/s 745 mmHg 85%
    15:00 +4°C° 0 mm 2 m/s 745 mmHg 87%
    16:00 +3°C° 0 mm 2 m/s 746 mmHg 90%
    17:00 +3°C° 0 mm 2 m/s 746 mmHg 92%
    18:00 +2°C° 0 mm 2 m/s 746 mmHg 93%
    19:00 +2°C° 0 mm 2 m/s 746 mmHg 93%
    20:00 +2°C° 0 mm 1 m/s 746 mmHg 94%
    21:00 +1°C° 0 mm 2 m/s 746 mmHg 94%
    22:00 +1°C° 0 mm 2 m/s 746 mmHg 94%
    23:00 +2°C° 0 mm 2 m/s 746 mmHg 94%

    3 Março, Terça-feira

    Tempo Temperatura Precipitação Vento Pressão Humidade
    00:00 +2°C° 0 mm 2 m/s 746 mmHg 95%
    01:00 +2°C° 0 mm 2 m/s 746 mmHg 95%
    02:00 +1°C° 0 mm 3 m/s 745 mmHg 96%
    03:00 +1°C° 0.4 mm 3 m/s 745 mmHg 96%
    04:00 +1°C° 0.4 mm 3 m/s 745 mmHg 97%
    05:00 +1°C° 0.4 mm 3 m/s 745 mmHg 98%
    06:00 +2°C° 0.5 mm 2 m/s 745 mmHg 98%
    07:00 +2°C° 0.5 mm 2 m/s 745 mmHg 98%
    08:00 +2°C° 0.5 mm 2 m/s 745 mmHg 98%
    09:00 +2°C° 0.1 mm 2 m/s 745 mmHg 98%
    10:00 +2°C° 0.1 mm 2 m/s 745 mmHg 98%
    11:00 +2°C° 0.1 mm 2 m/s 746 mmHg 98%
    12:00 +3°C° 0.1 mm 1 m/s 746 mmHg 98%
    13:00 +3°C° 0.1 mm 1 m/s 747 mmHg 98%
    14:00 +3°C° 0.1 mm 1 m/s 747 mmHg 98%
    15:00 +3°C° 0.1 mm 1 m/s 747 mmHg 98%
    16:00 +3°C° 0.1 mm 1 m/s 748 mmHg 98%
    17:00 +3°C° 0.1 mm 1 m/s 748 mmHg 98%
    18:00 +3°C° 0 mm 1 m/s 749 mmHg 98%
    19:00 +3°C° 0 mm 1 m/s 749 mmHg 98%
    20:00 +2°C° 0 mm 2 m/s 750 mmHg 98%
    21:00 +2°C° 0 mm 2 m/s 750 mmHg 98%
    22:00 +2°C° 0 mm 2 m/s 750 mmHg 98%
    23:00 +2°C° 0 mm 2 m/s 751 mmHg 98%

    4 Março, Quarta-feira

    Tempo Temperatura Precipitação Vento Pressão Humidade
    00:00 +1°C° 0 mm 3 m/s 751 mmHg 98%
    01:00 +1°C° 0 mm 3 m/s 751 mmHg 97%
    02:00 +1°C° 0 mm 3 m/s 751 mmHg 97%
    03:00 +1°C° 0 mm 3 m/s 751 mmHg 97%
    04:00 0°C° 0 mm 4 m/s 751 mmHg 97%
    05:00 0°C° 0 mm 4 m/s 751 mmHg 96%
    06:00 0°C° 0.1 mm 4 m/s 750 mmHg 95%
    07:00 0°C° 0.1 mm 4 m/s 750 mmHg 95%
    08:00 +1°C° 0.1 mm 5 m/s 750 mmHg 94%
    09:00 +1°C° 0 mm 5 m/s 750 mmHg 92%
    10:00 +2°C° 0 mm 5 m/s 750 mmHg 90%
    11:00 +2°C° 0 mm 5 m/s 750 mmHg 88%
    12:00 +2°C° 0.1 mm 5 m/s 750 mmHg 88%
    13:00 +2°C° 0.1 mm 5 m/s 749 mmHg 89%
    14:00 +2°C° 0.1 mm 5 m/s 749 mmHg 90%
    15:00 +3°C° 0 mm 4 m/s 749 mmHg 91%
    16:00 +3°C° 0 mm 4 m/s 749 mmHg 92%
    17:00 +4°C° 0 mm 4 m/s 748 mmHg 92%
    18:00 +4°C° 0.1 mm 4 m/s 748 mmHg 93%
    19:00 +4°C° 0.1 mm 4 m/s 748 mmHg 94%
    20:00 +4°C° 0.1 mm 4 m/s 747 mmHg 95%
    21:00 +4°C° 0 mm 4 m/s 747 mmHg 95%
    22:00 +4°C° 0 mm 4 m/s 747 mmHg 96%
    23:00 +4°C° 0 mm 4 m/s 746 mmHg 96%

    5 Março, Quinta-feira

    Tempo Temperatura Precipitação Vento Pressão Humidade
    00:00 +4°C° 0.4 mm 4 m/s 746 mmHg 96%
    01:00 +4°C° 0.4 mm 4 m/s 745 mmHg 96%
    02:00 +4°C° 0.4 mm 4 m/s 745 mmHg 96%
    03:00 +4°C° 0.1 mm 4 m/s 744 mmHg 95%
    04:00 +5°C° 0.1 mm 4 m/s 743 mmHg 95%
    05:00 +5°C° 0.1 mm 4 m/s 743 mmHg 94%
    06:00 +5°C° 0 mm 5 m/s 742 mmHg 93%
    07:00 +5°C° 0 mm 5 m/s 742 mmHg 92%
    08:00 +5°C° 0 mm 5 m/s 741 mmHg 91%
    09:00 +6°C° 0 mm 5 m/s 741 mmHg 88%
    10:00 +6°C° 0 mm 5 m/s 741 mmHg 85%
    11:00 +7°C° 0 mm 5 m/s 741 mmHg 83%
    12:00 +7°C° 0 mm 5 m/s 740 mmHg 82%
    13:00 +7°C° 0 mm 5 m/s 740 mmHg 81%
    14:00 +7°C° 0 mm 5 m/s 740 mmHg 80%
    15:00 +7°C° 0.1 mm 4 m/s 739 mmHg 80%
    16:00 +7°C° 0.1 mm 4 m/s 739 mmHg 79%
    17:00 +7°C° 0.1 mm 3 m/s 738 mmHg 78%
    18:00 +7°C° 0 mm 3 m/s 738 mmHg 80%
    19:00 +5°C° 0 mm 3 m/s 737 mmHg 81%
    20:00 +4°C° 0 mm 3 m/s 737 mmHg 83%
    21:00 +4°C° 0.1 mm 4 m/s 737 mmHg 84%
    22:00 +5°C° 0.1 mm 4 m/s 737 mmHg 85%
    23:00 +5°C° 0.1 mm 5 m/s 737 mmHg 86%
    Mostrar mais